Powrót do katalogu

COSMOS 970 DEB

AktywnyLEO
NORAD 64999·DEBRIS·🇷🇺 Russia

Wystrzelony Dec 21, 1977 z Baikonur Cosmodrome

Loading…

Następne Przeloty (najbliższe 24 godziny)

TLE

Starzejące sięSource: Space-Track

Epoka: Sep 10, 2026, 03:16 UTC

1 64999U 77121DL  26253.13621737  .00000003  00000-0  14556-3 0  9990
2 64999  65.7334  70.0509 0014460 150.3904 317.4188 13.37486814625016

Śledź COSMOS 970 DEB w czasie rzeczywistym z AllMySat

Download on the App Store